Wind_Speed
39 39 36 34 34 33 31 28 26 39 41 37 47 37 24 23 16 29 31 22 19 17 18 16 12 7 3 1 1 1 1 2 3 4 6 7 7 9 12 14 15 15 15 16 15 13 11 11 12
39 41 39 38 36 33 30 21 40 29 39 48 43 33 27 26 40 38 36 26 24 21 19 19 14 7 4 3 2 2 2 1 2 2 4 6 7 9 12 14 15 15 16 17 16 14 13 12 13
42 40 40 44 40 38 26 37 41 36 48 40 39 43 35 40 46 36 24 27 26 23 20 20 15 10 9 8 6 4 2 1 1 2 5 7 8 9 12 14 14 16 17 18 15 14 13 13 14
44 44 43 44 45 38 43 52 55 48 46 42 44 42 45 48 31 28 27 27 26 24 23 20 17 12 10 10 9 7 5 3 2 3 5 7 8 9 11 12 13 13 16 17 15 14 14 16 17
48 47 48 47 43 46 47 47 48 47 46 45 43 40 48 51 40 31 30 30 28 27 26 23 23 17 12 11 13 12 9 6 5 4 5 6 8 10 11 12 12 12 12 13 13 14 17 19 19
52 50 51 52 48 46 49 45 45 47 45 46 48 41 44 58 42 33 32 32 29 30 29 26 25 21 17 13 14 14 15 11 7 5 4 6 7 8 9 10 11 10 10 11 11 13 15 18 19
49 52 52 51 42 32 50 51 48 53 44 44 44 51 42 56 42 37 35 35 33 31 28 31 27 24 21 17 16 15 15 15 12 9 7 8 8 9 9 8 10 11 11 13 13 13 15 17 19
39 50 54 42 43 35 33 47 54 58 44 44 53 39 47 57 39 41 40 37 39 37 35 33 28 26 25 20 18 17 16 18 16 13 10 10 8 8 8 8 9 10 12 13 13 14 15 16 19
29 40 51 54 40 39 34 36 51 52 57 47 43 43 53 38 41 49 43 41 39 40 38 39 35 32 30 27 22 21 20 19 19 17 14 12 12 10 10 10 11 13 13 16 19 19 16 16 19
34 35 34 43 39 39 39 40 54 51 53 58 47 42 41 42 44 48 52 47 45 44 41 43 38 39 36 31 29 25 22 19 19 19 16 15 15 14 14 13 14 14 13 13 14 17 18 19 21
34 34 31 31 35 38 41 37 44 52 59 48 44 41 50 41 41 48 56 55 52 48 46 46 40 43 43 39 31 31 26 24 21 22 21 19 19 19 17 16 17 17 14 13 14 17 20 21 25
38 35 36 36 32 39 55 56 56 39 46 57 57 53 51 45 44 48 56 59 55 56 52 50 46 44 43 41 37 34 32 28 27 26 25 24 23 23 21 19 19 19 15 15 16 17 20 21 25
40 38 37 42 42 46 45 43 53 57 62 58 54 52 59 47 48 48 54 56 58 56 58 53 48 53 50 45 40 39 37 32 32 33 28 28 28 27 25 23 24 24 24 23 21 19 20 19 23
37 40 42 42 38 41 44 43 46 53 59 59 63 55 52 63 51 51 56 57 58 61 56 58 56 56 50 57 43 45 41 37 38 35 32 32 30 30 31 27 27 28 30 28 25 25 26 22 23
37 35 39 42 39 41 41 44 45 45 51 55 64 47 60 48 58 54 58 63 63 63 60 59 60 59 55 50 40 46 46 40 45 39 36 35 34 36 29 30 27 28 33 29 21 31 34 24 27
34 35 37 37 40 43 43 39 37 43 49 60 54 43 55 53 59 59 60 62 67 66 62 64 69 66 62 57 51 52 50 43 50 50 47 40 41 38 35 31 32 29 27 35 38 45 31 27 38
35 34 32 30 44 40 41 38 37 48 45 48 50 53 47 47 47 66 64 63 69 70 67 66 62 58 65 63 61 59 45 55 59 49 46 40 41 42 40 33 31 31 36 40 34 33 33 31 36
21 28 33 30 31 38 39 36 36 48 42 42 48 49 52 52 48 56 69 70 70 74 72 70 70 72 71 68 63 67 58 54 55 56 47 47 42 45 40 41 29 32 22 32 32 32 28 34 37
43 40 33 24 35 44 38 37 38 41 41 40 40 43 47 53 54 48 73 71 73 76 77 75 74 79 77 75 75 62 64 52 62 53 55 44 30 35 35 31 27 31 28 30 28 29 33 39 36
33 38 41 41 44 48 44 41 39 40 38 39 39 39 42 47 49 52 57 67 77 78 79 79 79 78 70 69 66 65 58 56 59 55 56 52 31 31 37 30 30 34 25 31 29 35 33 36 38
29 31 33 35 41 44 38 42 40 40 43 41 40 39 41 44 47 50 55 46 78 79 82 81 79 79 79 70 69 61 60 68 73 62 73 38 36 40 39 32 40 46 23 30 34 33 31 40 37
29 29 34 36 35 32 33 35 29 34 37 40 42 44 43 44 44 47 47 49 62 85 73 87 80 85 70 72 64 69 70 59 69 69 62 41 42 45 44 39 40 23 27 34 36 35 34 37 37
33 34 35 30 31 31 29 34 25 29 30 33 36 39 41 43 45 46 46 46 45 53 83 83 76 77 70 68 70 70 81 52 61 64 55 51 41 55 52 42 29 33 28 35 38 39 41 41 37
37 35 34 32 30 33 28 27 20 19 27 32 35 33 35 38 41 42 43 47 49 50 51 69 81 80 68 71 70 77 76 66 67 70 62 39 53 59 58 30 32 32 33 43 45 44 40 40 37
37 34 31 23 24 29 21 28 24 28 35 31 35 38 38 39 39 41 41 43 47 52 55 55 57 66 59 71 77 72 65 67 68 61 60 59 58 65 63 35 33 38 42 44 47 41 42 36 35
30 23 27 23 24 21 16 26 19 28 39 33 35 37 39 40 41 43 45 46 45 47 52 56 59 60 62 59 78 75 77 75 66 76 60 61 60 62 68 62 43 50 49 52 49 43 43 37 31
27 31 25 35 35 37 34 32 25 34 31 31 32 36 38 40 42 45 47 47 48 50 52 53 56 59 63 65 63 62 65 72 79 69 76 66 63 62 63 60 52 51 54 52 52 44 42 35 31
34 31 28 27 28 29 24 23 23 31 26 35 36 37 38 39 40 43 46 49 51 50 50 56 58 61 61 61 66 65 65 64 63 71 71 71 64 61 62 61 60 59 57 56 45 44 40 34 35
26 30 35 31 28 21 21 19 27 25 19 34 33 33 35 37 40 41 43 48 51 53 53 51 58 63 65 65 64 65 65 65 65 64 68 74 66 70 64 64 64 60 53 47 41 40 35 34 38
27 30 28 27 27 30 28 33 25 30 38 41 30 33 34 34 37 39 40 44 46 51 52 51 50 55 66 70 71 69 66 66 64 64 61 60 62 61 54 62 69 54 45 39 37 33 34 34 37
Wind_Direction
234 233 231 229 225 224 218 214 222 225 224 208 215 216 203 190 195 219 226 229 218 210 214 194 176 195 180 249 206 96 136 190 125 96 83 72 56 46 33 26 26 19 16 10 2 349 350 6 9
232 232 235 232 225 222 215 213 241 229 227 220 228 224 221 210 203 212 218 218 216 214 213 202 182 199 222 273 233 181 141 147 132 86 54 52 42 27 23 18 22 18 14 9 4 2 1 11 16
232 231 234 234 224 219 211 210 229 228 231 224 224 222 213 210 218 226 230 211 210 214 211 212 184 193 219 240 253 230 210 160 109 57 24 30 25 14 12 13 18 13 9 5 4 3 7 13 18
234 231 234 237 227 222 214 220 220 228 229 222 221 219 225 236 238 229 220 218 210 211 216 218 210 198 215 226 240 245 239 260 273 333 356 6 9 3 5 7 8 11 0 1 3 358 5 7 9
240 233 232 235 237 224 220 230 231 236 234 232 228 219 220 232 229 223 211 212 209 207 213 219 226 211 219 226 234 243 247 258 265 295 328 346 354 351 353 351 346 352 354 357 1 2 6 5 4
236 235 232 233 238 237 233 229 230 234 235 233 235 232 226 231 227 223 214 213 215 205 212 213 229 221 226 227 242 250 251 258 259 271 296 316 335 340 346 342 332 333 340 340 353 359 4 6 2
239 235 236 232 234 245 241 235 228 229 239 239 236 232 232 235 224 219 219 212 216 212 213 215 221 222 226 226 242 253 255 259 268 273 288 301 313 326 330 326 317 320 329 326 335 341 348 353 358
243 237 237 237 235 237 256 246 235 222 232 237 236 233 234 238 224 219 219 216 218 220 223 223 231 234 224 230 241 250 253 252 261 269 277 285 292 301 308 306 309 315 322 323 324 331 337 346 347
243 242 241 236 236 240 239 254 242 231 229 235 240 234 240 240 228 219 221 219 218 221 226 228 232 240 235 234 237 244 251 253 255 257 266 273 280 282 286 292 297 303 310 317 320 326 331 342 342
244 250 251 239 236 237 244 248 262 241 237 230 240 239 241 233 224 221 216 220 221 222 225 228 235 233 241 238 235 235 241 249 257 254 257 265 266 267 273 280 289 293 301 313 320 318 325 338 340
246 250 249 245 242 231 235 240 250 261 243 240 231 239 235 232 226 222 218 218 222 219 221 226 227 228 238 243 227 232 232 242 250 250 251 258 261 263 264 275 284 288 296 309 316 316 322 333 336
242 244 243 243 232 239 233 223 227 234 256 241 240 236 238 236 229 223 221 218 222 225 220 224 230 223 232 224 224 224 228 237 243 244 247 254 256 257 261 268 277 279 286 299 301 307 317 330 327
240 239 242 242 241 247 248 246 244 240 242 253 246 244 236 232 229 224 224 218 220 221 226 225 227 227 230 248 210 219 224 229 237 244 242 247 252 253 255 260 272 274 277 288 294 300 312 317 320
244 237 237 245 247 250 251 245 244 241 241 245 248 241 247 234 229 225 223 217 217 221 223 227 221 228 232 234 241 214 221 227 238 234 236 239 246 254 260 259 267 270 276 286 289 302 305 310 318
244 246 243 246 245 251 252 244 244 247 243 244 247 244 241 249 229 226 224 217 215 219 225 222 226 226 229 238 220 227 218 221 233 231 230 235 240 250 261 254 263 271 282 285 290 309 295 303 314
248 248 247 248 251 247 249 251 246 247 240 241 245 244 238 236 242 226 227 222 218 219 222 226 221 221 224 230 234 224 217 215 228 232 228 228 238 243 252 254 255 268 283 280 294 292 291 273 323
250 250 254 251 249 250 250 249 247 249 241 245 245 247 241 241 247 234 227 224 219 222 222 226 236 220 224 227 231 224 228 240 230 228 224 243 239 242 246 255 264 271 279 275 289 311 320 311 313
254 263 246 235 262 248 250 248 246 253 247 245 243 241 246 245 249 240 225 223 223 221 224 225 229 235 214 216 224 226 233 232 232 230 243 233 242 241 250 248 262 303 287 292 297 306 311 310 309
241 240 236 241 244 257 252 248 247 251 252 251 247 243 241 245 248 249 229 224 225 224 223 226 230 235 240 224 223 228 230 222 238 237 241 240 246 255 263 269 291 283 282 298 300 304 306 306 309
246 245 249 252 254 257 255 253 249 250 252 250 249 244 240 239 244 252 234 231 223 224 225 226 229 233 237 241 241 233 234 240 231 232 247 239 239 257 254 270 276 254 289 299 300 301 304 306 302
249 247 247 248 251 257 262 258 257 253 251 248 247 244 243 243 242 244 255 264 223 224 223 228 230 233 235 237 243 233 239 251 242 239 246 239 259 261 249 252 260 268 271 298 299 299 295 306 304
249 251 248 249 256 257 257 254 255 255 253 251 249 246 243 242 244 247 246 258 236 225 225 223 227 231 233 234 241 248 247 242 253 245 241 243 253 269 259 259 261 274 289 294 295 285 296 301 307
249 249 253 254 255 255 253 261 252 254 254 255 250 248 247 246 246 244 246 249 262 246 231 235 236 229 231 233 236 237 244 249 248 241 244 237 260 262 229 235 264 267 285 292 287 287 301 298 304
253 252 257 257 260 257 256 257 251 260 259 246 252 250 251 250 247 247 246 245 243 247 251 251 234 239 235 233 235 238 239 241 247 255 259 249 256 247 257 261 269 278 272 279 286 294 297 291 301
255 253 257 264 267 266 259 250 230 235 247 254 252 252 251 251 253 253 247 244 244 243 243 247 249 248 257 249 243 241 241 246 245 250 248 249 253 256 271 260 266 267 259 275 280 292 294 297 297
248 254 245 247 236 240 252 261 273 253 249 258 257 257 257 256 253 251 253 254 249 245 246 245 246 247 251 254 247 241 240 249 239 245 243 246 249 254 262 266 262 262 263 272 279 288 293 293 286
249 237 250 236 225 226 219 234 251 263 262 261 251 254 257 258 258 258 256 254 252 252 249 247 247 246 244 245 247 247 251 253 244 248 243 244 250 255 262 266 257 259 263 266 278 285 288 289 286
254 241 246 258 256 253 255 259 264 245 257 269 250 251 249 250 254 259 263 263 260 257 252 249 246 246 245 244 246 243 243 245 247 246 243 248 252 255 258 263 261 261 265 274 278 280 283 285 284
263 256 241 244 243 253 244 239 249 249 213 247 264 254 263 264 263 263 264 262 264 261 258 253 249 248 247 245 243 244 242 241 241 243 243 243 245 252 256 256 258 260 271 269 267 274 278 278 277
252 245 244 249 254 247 245 238 237 254 243 256 261 267 267 263 269 269 269 264 256 257 258 253 247 248 246 245 244 243 242 241 240 241 244 242 245 246 254 251 253 259 263 261 263 270 270 270 271
Height
5854 5857 5860 5863 5868 5869 5877 5881 5883 5878 5884 5883 5881 5892 5897 5904 5908 5902 5894 5900 5901 5902 5903 5902 5904 5905 5905 5906 5905 5905 5904 5903 5901 5902 5902 5902 5902 5901 5900 5898 5897 5897 5895 5894 5893 5892 5890 5888 5886
5848 5851 5855 5857 5862 5865 5873 5880 5873 5877 5869 5870 5879 5889 5895 5898 5888 5887 5890 5896 5899 5900 5901 5901 5902 5904 5904 5905 5905 5904 5903 5903 5901 5902 5902 5900 5901 5900 5898 5898 5896 5896 5895 5893 5893 5891 5891 5888 5887
5842 5845 5850 5849 5854 5859 5869 5863 5863 5864 5862 5873 5879 5880 5886 5885 5880 5887 5894 5894 5896 5899 5899 5900 5900 5902 5903 5904 5905 5904 5903 5902 5901 5901 5901 5900 5900 5899 5898 5898 5897 5896 5895 5894 5892 5891 5890 5889 5886
5835 5840 5842 5845 5848 5855 5854 5849 5853 5855 5860 5865 5867 5878 5876 5871 5887 5889 5892 5894 5894 5896 5897 5898 5899 5900 5901 5902 5903 5903 5903 5902 5902 5901 5901 5900 5899 5898 5898 5897 5896 5895 5896 5895 5894 5893 5890 5888 5886
5826 5832 5835 5838 5842 5846 5847 5846 5852 5854 5858 5861 5863 5870 5871 5867 5877 5885 5887 5890 5892 5893 5895 5895 5897 5897 5898 5900 5901 5901 5901 5900 5900 5899 5900 5900 5899 5899 5898 5897 5896 5895 5895 5895 5894 5892 5890 5888 5885
5817 5822 5827 5832 5836 5838 5843 5844 5845 5849 5851 5854 5857 5864 5867 5855 5871 5881 5884 5886 5888 5890 5892 5893 5893 5895 5896 5897 5898 5899 5899 5899 5898 5898 5898 5898 5898 5898 5897 5896 5896 5895 5895 5894 5892 5891 5889 5887 5885
5808 5814 5818 5824 5831 5834 5832 5834 5839 5841 5847 5847 5850 5852 5860 5850 5870 5876 5879 5882 5884 5887 5889 5890 5890 5891 5893 5894 5895 5896 5896 5897 5897 5897 5897 5897 5897 5897 5896 5894 5895 5895 5893 5893 5892 5890 5889 5886 5884
5801 5805 5809 5817 5822 5828 5831 5826 5827 5830 5836 5837 5837 5852 5849 5844 5865 5871 5873 5876 5879 5881 5884 5885 5888 5888 5888 5891 5892 5893 5893 5894 5895 5896 5896 5895 5895 5894 5894 5893 5893 5892 5891 5890 5889 5888 5886 5885 5882
5795 5795 5798 5806 5817 5824 5828 5823 5819 5824 5823 5828 5834 5839 5837 5853 5856 5860 5866 5870 5873 5875 5877 5879 5883 5884 5885 5886 5888 5889 5891 5892 5892 5892 5893 5893 5892 5892 5891 5891 5890 5889 5888 5887 5886 5885 5884 5882 5881
5787 5788 5793 5801 5809 5817 5822 5821 5810 5815 5818 5824 5825 5831 5833 5840 5845 5852 5858 5862 5865 5868 5872 5872 5877 5879 5880 5882 5883 5885 5887 5888 5889 5889 5890 5890 5890 5889 5888 5887 5886 5886 5885 5884 5883 5882 5881 5879 5878
5781 5784 5789 5792 5797 5805 5808 5812 5808 5804 5809 5814 5817 5820 5821 5831 5839 5843 5847 5851 5856 5860 5864 5866 5870 5872 5875 5876 5878 5880 5882 5884 5885 5886 5886 5887 5887 5887 5886 5884 5884 5884 5883 5882 5881 5880 5879 5877 5875
5774 5778 5780 5783 5788 5790 5788 5793 5795 5799 5801 5799 5805 5809 5817 5825 5829 5833 5835 5842 5848 5851 5855 5857 5863 5865 5866 5870 5874 5876 5878 5880 5880 5881 5881 5883 5883 5883 5882 5881 5881 5880 5880 5880 5878 5877 5876 5875 5873
5766 5771 5772 5773 5776 5777 5780 5783 5786 5788 5786 5791 5800 5804 5809 5815 5820 5825 5828 5835 5837 5844 5846 5849 5854 5855 5858 5862 5863 5870 5873 5874 5875 5876 5877 5878 5879 5879 5878 5878 5878 5878 5877 5878 5875 5874 5874 5872 5871
5759 5760 5762 5765 5768 5769 5770 5774 5775 5780 5781 5784 5784 5796 5799 5804 5811 5814 5819 5826 5831 5834 5838 5842 5845 5846 5853 5853 5856 5861 5866 5869 5870 5870 5871 5873 5875 5875 5875 5875 5874 5874 5874 5875 5874 5873 5871 5870 5868
5751 5755 5755 5757 5760 5760 5761 5763 5766 5770 5774 5777 5775 5788 5790 5795 5798 5804 5810 5814 5821 5824 5829 5832 5838 5841 5844 5848 5848 5854 5858 5859 5862 5862 5866 5867 5869 5870 5870 5871 5870 5870 5871 5872 5871 5869 5869 5866 5864
5744 5746 5747 5751 5751 5751 5752 5756 5761 5761 5763 5763 5771 5776 5778 5785 5788 5792 5797 5807 5811 5814 5819 5822 5822 5827 5833 5838 5842 5844 5846 5847 5852 5853 5857 5860 5863 5863 5865 5866 5866 5866 5867 5866 5867 5866 5862 5861 5860
5737 5739 5741 5743 5739 5743 5744 5749 5752 5747 5755 5757 5761 5767 5771 5774 5774 5779 5786 5793 5801 5804 5808 5812 5814 5811 5823 5827 5830 5832 5834 5840 5843 5845 5848 5853 5856 5856 5859 5862 5861 5863 5863 5862 5862 5862 5860 5858 5855
5735 5733 5734 5733 5730 5733 5736 5741 5744 5740 5747 5748 5750 5754 5759 5764 5764 5766 5772 5780 5788 5792 5796 5801 5804 5804 5804 5809 5819 5823 5825 5833 5837 5839 5842 5845 5848 5848 5854 5855 5857 5858 5857 5858 5859 5858 5854 5854 5851
5718 5722 5724 5725 5724 5722 5728 5732 5734 5734 5737 5739 5742 5745 5748 5750 5751 5755 5761 5770 5774 5781 5785 5789 5793 5795 5799 5801 5805 5813 5816 5821 5830 5832 5837 5837 5841 5844 5848 5848 5849 5851 5850 5850 5851 5852 5850 5849 5846
5712 5714 5715 5716 5715 5713 5718 5721 5725 5726 5728 5731 5733 5736 5738 5739 5743 5744 5748 5755 5759 5766 5773 5779 5782 5784 5790 5795 5800 5807 5806 5813 5819 5821 5824 5826 5831 5836 5840 5841 5842 5843 5843 5842 5844 5847 5845 5843 5840
5704 5705 5706 5707 5705 5706 5710 5711 5714 5717 5717 5720 5723 5727 5728 5729 5730 5732 5735 5741 5747 5752 5761 5769 5772 5775 5781 5786 5789 5785 5796 5804 5810 5812 5820 5821 5820 5825 5830 5833 5836 5837 5834 5836 5838 5838 5840 5836 5833
5697 5697 5696 5697 5699 5701 5700 5703 5704 5705 5707 5709 5712 5715 5718 5720 5722 5722 5727 5730 5734 5740 5746 5754 5756 5763 5764 5772 5776 5779 5783 5789 5798 5803 5806 5806 5810 5816 5822 5825 5826 5827 5827 5829 5830 5832 5834 5831 5826
5688 5688 5688 5691 5691 5692 5696 5694 5699 5699 5699 5700 5701 5704 5707 5711 5715 5718 5718 5720 5726 5733 5734 5742 5742 5750 5754 5759 5766 5772 5778 5779 5785 5792 5785 5791 5796 5808 5804 5806 5815 5819 5818 5822 5825 5823 5826 5822 5823
5678 5681 5682 5683 5685 5684 5688 5690 5695 5697 5692 5692 5692 5696 5699 5702 5705 5709 5712 5713 5716 5721 5725 5725 5733 5737 5742 5748 5753 5759 5764 5770 5776 5777 5760 5773 5793 5798 5785 5792 5808 5807 5812 5816 5816 5817 5818 5817 5815
5670 5673 5675 5679 5680 5680 5682 5682 5686 5684 5683 5685 5685 5687 5691 5695 5697 5699 5703 5706 5707 5709 5712 5717 5719 5722 5727 5731 5738 5745 5750 5755 5763 5769 5774 5777 5782 5790 5791 5797 5803 5801 5807 5808 5810 5811 5811 5811 5809
5663 5666 5671 5672 5677 5682 5670 5672 5677 5675 5672 5675 5676 5678 5681 5683 5685 5689 5690 5693 5697 5699 5700 5705 5709 5713 5719 5722 5727 5733 5740 5742 5747 5758 5762 5769 5776 5781 5784 5792 5794 5798 5800 5803 5803 5803 5804 5803 5802
5657 5657 5661 5658 5660 5661 5664 5665 5667 5664 5665 5666 5667 5668 5669 5672 5673 5674 5676 5680 5683 5687 5692 5694 5697 5701 5704 5708 5714 5722 5727 5732 5737 5745 5752 5759 5765 5771 5775 5779 5788 5790 5792 5793 5796 5796 5796 5795 5794
5646 5651 5650 5650 5651 5653 5658 5663 5664 5657 5655 5654 5656 5657 5660 5662 5663 5663 5662 5663 5667 5671 5674 5675 5680 5684 5689 5695 5700 5706 5714 5721 5728 5735 5742 5750 5756 5761 5766 5771 5776 5781 5782 5783 5786 5788 5787 5787 5786
5640 5638 5641 5644 5644 5646 5651 5655 5649 5648 5648 5644 5644 5647 5648 5649 5650 5652 5652 5651 5650 5652 5657 5661 5663 5667 5672 5679 5684 5690 5698 5705 5713 5720 5727 5737 5745 5751 5757 5762 5766 5770 5772 5775 5778 5779 5778 5779 5779
5632 5633 5634 5633 5636 5639 5643 5644 5647 5637 5641 5636 5637 5636 5637 5638 5637 5637 5637 5638 5639 5639 5638 5643 5649 5651 5655 5660 5665 5673 5680 5690 5697 5706 5715 5723 5733 5741 5745 5751 5755 5762 5764 5767 5769 5771 5770 5771 5771